User: anonymous   Login
Location: Mt. Cuba Astronomical Observatory
(39.8100°N, 75.6300°W)
Time: 17:04:32
(UTC-04:00)
Language:

Cosmos 2058 - Orbit

View from above orbital plane
View from above orbital plane
View from above satellite
View from above satellite

Ground track
Ground track

The orbit data is extracted from the following two-line orbital elements,

1 20465U 90010A   16235.91633149 +.00000418 +00000-0 +33696-4 0  9994
2 20465 082.4917 174.5846 0014579 214.4235 145.6044 14.97266307419599
Epoch (UTC): 22 August 2016 21:59:31
Eccentricity: 0.0014579
inclination: 82.4917°
perigee height: 565 km
apogee height: 585 km
right ascension of ascending node: 174.5846°
argument of perigee: 214.4235°
revolutions per day: 14.97266307
mean anomaly at epoch: 145.6044°
orbit number at epoch: 41959

The dashed part of the orbit path shows where the satellite is in the earth's shadow,  

DLR